Regional Weather Roundup
Issued by NWS

Home | Current Version | Previous Version | Text Only | Print | Product List | Glossary On
Versions: 1 2 3 4 5 6 7 8 9 10 11 12 13 14 15 16 17 18 19 20 21 22 23 24 25 26 27 28 29 30 31 32 33 34 35 36 37 38 39 40 41 42 43 44 45 46 47 48 49 50
000
ASHW40 PHFO 292210
RWRHI

WEATHER ROUNDUP FOR HAWAII
NATIONAL WEATHER SERVICE HONOLULU HI
1200 PM HST FRI AUG 29 2014

THIS IS AN AUTOMATED REPORT THAT HAS NOT BEEN QUALITY CONTROLLED.

NOTE..."FAIR" INDICATES FEW OR NO CLOUDS BELOW 12,000 FEET WITH NO
SIGNIFICANT WEATHER AND/OR OBSTRUCTIONS TO VISIBILITY.

* - THESE SITES REPORT LIMITED FIELDS

HIZ001>004-292300-
KAUAI-NIIHAU-

CITY           SKY/WX    TMP DP  RH WIND       PRES   REMARKS
LIHUE APT      SUNNY     84  69  60 NE10      29.95F
PORT ALLEN*    NOT AVBL
POIPU*         NOT AVBL
PRINCEVILLE*   NOT AVBL
KOKOLE POINT*  NOT AVBL
MOLOAA DAIRY*  NOT AVBL
WAIMEA HTS*    NOT AVBL
PUU OPAE*      NOT AVBL
PUU LUA*       NOT AVBL
MAKAHA RIDGE*  NOT AVBL
$$

HIZ005>011-292300-
OAHU-

CITY           SKY/WX    TMP DP  RH WIND       PRES   REMARKS
HONOLULU       MOSUNNY   87  64  46 E7        29.91F
KALAELOA       CLOUDY    84  69  60 SE7       29.93S
KANEOHE MCB    MOSUNNY   79  70  74 NE6       29.93F
WHEELER FIELD  PTSUNNY   83  66  56 E12       29.93F
BELLOWS*       NOT AVBL
KAHUKU*        NOT AVBL
WHEELER*       NOT AVBL
WAIANAE HARBOR NOT AVBL
DILLINGHAM*      N/A     97  70  41 N5G13       N/A  HX 103
KAHUKU TRN*      N/A     82  70  65 E9G18       N/A
KAWAILOA*      NOT AVBL
KII*             N/A     82  72  69 E12         N/A
MAKUA RANGE*     N/A     88  66  48 E7G18       N/A  HX  90
OAHU FOREST NW NOT AVBL
SCHOFIELD BRK*   N/A     82  66  57 MISG        N/A
SCHOFIELD S*   NOT AVBL
WAIANAE VLY*   NOT AVBL
KUAOKALA*      NOT AVBL
HONOULIUULI*   NOT AVBL
MOKUOLOE IS*     N/A    N/A N/A N/A MISG        N/A
PALEHUA*       NOT AVBL
WAIAWA PHB*    NOT AVBL
$$

HIZ012>013-292300-
MOLOKAI-

CITY           SKY/WX    TMP DP  RH WIND       PRES   REMARKS
MOLOKAI AIRPT  SUNNY     84  71  65 N13G21    29.93S
KALAUPAPA      NOT AVBL
MAKAPULAPAI*   NOT AVBL
MOLOKAI 1*     NOT AVBL
PUU ALII*      NOT AVBL
$$

HIZ016-292300-
KAHOOLAWE-

CITY           SKY/WX    TMP DP  RH WIND       PRES   REMARKS
KAHOOLAWE*     NOT AVBL
HAKIOAWA*      NOT AVBL
HONOKANAIA*      N/A     86  69  57 E12G17    29.92F HX  90
KANELOA*         N/A     81  68  65 E7G18     30.02F
KEALIALALO*    NOT AVBL
LUA MAKIKA*    NOT AVBL
$$

HIZ014>015-292300-
LANAI-

CITY           SKY/WX    TMP DP  RH WIND       PRES   REMARKS
LANAI CITY     PTSUNNY   82  66  58 VRB5      29.98S
LANAI 1*       NOT AVBL
$$

HIZ017>028-292300-
MAUI-

CITY           SKY/WX    TMP DP  RH WIND       PRES   REMARKS
KAHULUI        MOSUNNY   87  70  56 N16       29.92S HX  92
KAPALUA-W MAUI MOSUNNY   86  68  54 N23       29.91
HANA AIRPORT   LGT RAIN  77  72  83 SE2       29.95S
HANA*          NOT AVBL
HALEAKALA SUMM   N/A     52  43  71 NE9G23      N/A
MAALAEA BAY*   NOT AVBL
HALEAKALA*     NOT AVBL
KAUPO GAP*     NOT AVBL
KULA 1*          N/A     63  55  75 W5G10       N/A
$$

HIZ023>026-292300-
BIG ISLAND OF HAWAII COAST AND LOWER SLOPES-

CITY           SKY/WX    TMP DP  RH WIND       PRES   REMARKS
KAILUA KONA    CLOUDY    83  70  64 SW12      29.90F
HILO           MOSUNNY   84  71  65 N10       29.90F
HONOKAA*       NOT AVBL
KAWAIHAE MWT*  NOT AVBL
KAWAIHAE*        N/A     81 N/A N/A SW7         N/A
SOUTH POINT*   NOT AVBL
UPOLU AIRPORT* NOT AVBL
KAMUELA*       MOCLDY    77  64  65 N15       30.02S
HAKALAU*         N/A     65  55  71 E6G15       N/A
KALOKO-HONOKO* NOT AVBL
PALI 2*          N/A     72  66  83 S10         N/A
KEALAKOMO*       N/A     82  73  74 E13G21      N/A
KAUPULEHU*     NOT AVBL
KAPAPALA*        N/A     76  65  68 S3G12       N/A
LOWER KAHUKU*  NOT AVBL
PUHE CS*       NOT AVBL
PUHO CS*       NOT AVBL
PTA KEAMUKU*     N/A     75  61  60 N18G26      N/A
WAIKOLOA*      NOT AVBL
$$

HIZ027>028-292300-
BIG ISLAND OF HAWAII INTERIOR AND SUMMMITS-

CITY           SKY/WX    TMP DP  RH WIND       PRES   REMARKS
BRADSHAW FIELD PTSUNNY   67  54  64 W9G20     30.24F
MK VISITOR CEN NOT AVBL
MAUNA KEA*       N/A     52  -2  11 NW13        N/A
MAUNA LOA*       N/A     52  36  54 MISG        N/A
MAUNA LOA 1*   NOT AVBL
PTA KIPUKA*      N/A     70  57  64 N9G17       N/A
PTA RANGE 17*    N/A     70  57  64 W14G21      N/A
PTA WEST*        N/A     73  59  60 NW16G26     N/A
NENE CABIN*    NOT AVBL
AHUMOA*        NOT AVBL
PTA PORTABLE*  NOT AVBL
PUU MALI*      NOT AVBL
$$

HIC003-292300-
NORTHWEST ISLANDS-

CITY           SKY/WX    TMP DP  RH WIND       PRES   REMARKS
MIDWAY ISLAND  MOSUNNY   84  73  70 NE7       30.06S HX  91
MIDWAY NOS*    NOT AVBL
FRENCH FRIGATE NOT AVBL
$$

PHZ110>124-180-292300-
BUOY REPORTS

STATION/POSITION TIME  TEMP    WIND        PRES    WAVE   SWELL
                       AIR SEA DIR/SP/G            HT/PER HT/DIR
                 (UTC) (F)     (DEG/KT/KT) (MB)    (FT/S) (FT/D)
BUOY 51001       NOT AVBL
BUOY 51101       NOT AVBL
BUOY 51100       2100   77 80   70/  6/  8 1013.6F   7/15   7/ 90
BUOY 51003       2100   81 82   60/ 10/ 12 1013.1S   5/15   5
BUOY 51004       2147   78 81   60/  6/  8 1012.4F   7/14   7/130
BARBERS PT BUOY  NOT AVBL
WAIMEA BAY BUOY  2200      81                N/A     4/ 8   2/ 10
KAILUA BAY BUOY  2200      81                N/A     5/15   3/100
LANAI BUOY       NOT AVBL
BARBERS PT 2     2200      81                N/A     4/13   3/190
PAUWELA MAUI     2200      81                N/A     6/13   3/ 90
HILO             NOT AVBL
KANEOHE BAY BUOY 2200      81                N/A     5/17   2/ 50
HANALEI KAUAI    NOT AVBL
KAHULUI HARBOR   2200   79 82   20/ 11/ 13 1013.0S
HONOLULU HARBOR  2200   84      60/  8/ 12 1013.2S
KILO NALU        NOT AVBL
HILO HARBOR      2200   82      30/ 11/ 13 1012.2F
MOKUOLOE         2200      82              1013.8S
NAWILIWILI       2200      84                N/A
WHOTS BUOY       NOT AVBL
BUOY 51028       NOT AVBL
$$

......................KEY........................................
  SKY/WX - SKY CONDITIONS/PRESENT WEATHER
  TMP    - TEMPERATURE IN FAHRENHEIT
  DWPT   - DEWPOINT IN FAHRENHEIT
  RH     - RELATIVE HUMIDITY IN PERCENT
  WIND   - DIRECTION AND SPEED /MPH FOR ISLANDS...KTS FOR BUOYS/
  PRES   - MEAN SEA LEVEL PRESSURE IN INCHES OF HG
  VSB    - VISIBILITY IN MILES
  HX     - HEAT INDEX
  WCI    - WIND CHILL INDEX
  VRB    - VARIABLE WIND DIRECTION
  N/A    - NOT AVAILABLE



USA.gov is the U.S. government's official web portal to all federal, state and local government web resources and services.